Weather reports worldwide

Advertisment
Jacksonville, fl, United States of America (2072905): temperature & dewpoint: 10.12.2019 08:00:00 - 16.12.2019 08:00:00 (EST)Jacksonville, fl, United States of America (2072905): wind speed & gusts: 10.12.2019 08:00:00 - 16.12.2019 08:00:00 (EST)Jacksonville, fl, United States of America (2072905): wind direction: 10.12.2019 08:00:00 - 16.12.2019 08:00:00 (EST)Jacksonville, fl, United States of America (2072905): reduced air pressure: 10.12.2019 08:00:00 - 16.12.2019 08:00:00 (EST)Jacksonville, fl, United States of America (2072905): visibility: 10.12.2019 08:00:00 - 16.12.2019 08:00:00 (EST)Jacksonville, fl, United States of America (2072905): precipitation: 10.12.2019 08:00:00 - 16.12.2019 08:00:00 (EST)
Date & Time tt [°C] td [°C] ff [km/h] ff [kn] fx [km/h] fx [kn] dd ppp [hPa] vv [km] rr [mm]
16.12.2019 08:00:00 12,2 11,1 0 0 - - N 1022,7 13 -
16.12.2019 07:00:00 12,2 10,6 0 0 - - N 1022,2 16 -
16.12.2019 06:00:00 12,8 10,6 0 0 - - N 1021,6 16 -
16.12.2019 05:00:00 13,3 10,6 0 0 - - N 1021,3 16 -
16.12.2019 04:00:00 12,8 10,6 0 0 - - N 1021,3 16 -
16.12.2019 03:00:00 12,8 10,0 0 0 - - N 1021,2 16 -
16.12.2019 02:00:00 12,8 10,0 0 0 - - N 1021,4 16 -
16.12.2019 01:00:00 13,3 10,0 0 0 - - N 1021,5 16 -
16.12.2019 00:00:00 13,3 10,0 0 0 - - N 1021,9 16 -
15.12.2019 23:00:00 13,9 11,1 0 0 - - N 1022,3 16 -
15.12.2019 22:00:00 13,9 10,6 5 3 - - ESE 1022,4 16 -
15.12.2019 21:00:00 13,9 10,0 8 4 - - SE 1022,5 16 -
15.12.2019 20:00:00 13,9 10,0 0 0 - - N 1022,0 16 -
15.12.2019 19:00:00 13,9 9,4 8 4 - - E 1022,1 16 -
15.12.2019 18:00:00 14,4 8,9 15 8 - - E 1021,5 16 -
15.12.2019 17:00:00 16,7 7,8 11 6 - - E 1021,1 16 -
15.12.2019 16:00:00 18,9 7,8 15 8 - - E 1020,6 16 -
15.12.2019 15:00:00 20,0 7,2 9 5 - - N 1020,5 16 -
15.12.2019 14:00:00 19,4 7,2 11 6 - - N 1021,0 16 -
15.12.2019 13:00:00 18,3 6,1 11 6 - - N 1021,3 16 -
15.12.2019 12:00:00 17,2 7,2 5 3 - - N 1021,9 16 -
15.12.2019 11:00:00 16,7 7,8 8 4 - - - 1022,3 16 -
15.12.2019 10:00:00 15,0 8,3 5 3 - - - 1022,1 16 -
15.12.2019 09:00:00 13,3 8,9 5 3 - - N 1021,4 16 -
15.12.2019 08:00:00 10,0 7,2 0 0 - - N 1020,6 16 -
15.12.2019 07:00:00 9,4 6,7 5 3 - - NW 1019,7 16 -
15.12.2019 06:00:00 10,0 7,2 5 3 - - WNW 1019,1 16 -
15.12.2019 05:00:00 10,6 7,8 5 3 - - W 1018,2 16 -
15.12.2019 04:00:00 11,1 8,3 9 5 - - NW 1017,6 16 -
15.12.2019 03:00:00 11,1 8,3 5 3 - - WNW 1017,1 16 -
15.12.2019 02:00:00 11,1 8,3 8 4 - - W 1016,8 16 -
15.12.2019 01:00:00 11,7 8,9 5 3 - - W 1016,4 16 -
15.12.2019 00:00:00 12,2 8,9 8 4 - - W 1016,3 16 -
14.12.2019 23:00:00 12,8 8,9 8 4 - - W 1016,0 16 -
14.12.2019 22:00:00 13,9 8,9 8 4 - - W 1015,1 16 -
14.12.2019 21:00:00 14,4 8,9 8 4 - - W 1014,2 16 -
14.12.2019 20:00:00 15,6 8,9 11 6 - - WSW 1013,3 16 -
14.12.2019 19:00:00 16,1 8,9 8 4 - - W 1012,5 16 -
14.12.2019 18:00:00 17,8 8,3 9 5 - - WNW 1011,3 16 -
14.12.2019 17:00:00 19,4 7,8 21 11 - - W 1010,7 16 -
14.12.2019 16:00:00 20,6 7,8 26 14 - - W 1009,4 16 -
14.12.2019 15:00:00 20,6 8,9 21 11 - - W 1009,3 16 -
14.12.2019 14:00:00 19,4 8,9 29 16 - - WNW 1008,8 16 -
14.12.2019 13:00:00 18,9 10,0 26 14 - - W 1008,7 16 -
14.12.2019 12:00:00 18,3 11,7 26 14 - - W 1008,9 16 -
14.12.2019 11:00:00 17,8 13,3 26 14 - - WNW 1009,0 16 -
14.12.2019 10:00:00 17,2 15,0 15 8 - - WNW 1008,2 16 -
14.12.2019 09:00:00 17,2 14,4 16 9 - - WNW 1006,9 16 -
14.12.2019 08:00:00 16,1 14,4 9 5 - - W 1006,0 16 -
14.12.2019 07:00:00 15,6 13,9 0 0 - - N 1005,0 16 0,0
14.12.2019 06:00:00 16,7 14,4 13 7 54 29 WNW 1006,3 13 2,8
14.12.2019 05:00:00 20,6 18,9 21 11 54 29 SW 1004,4 16 0,3
14.12.2019 04:00:00 20,0 18,3 18 10 - - SW 1003,6 8 1,5
14.12.2019 03:00:00 19,4 17,8 13 7 - - S 1004,8 16 -
14.12.2019 02:00:00 18,9 17,8 22 12 - - SSW 1005,6 10 -
14.12.2019 01:00:00 18,3 17,2 15 8 - - S 1006,2 4,8 0,0
14.12.2019 00:00:00 17,8 16,7 11 6 - - SSE 1007,1 1,2 0,0
13.12.2019 23:00:00 17,8 16,7 5 3 - - SE 1008,0 0,4 0,0
13.12.2019 22:00:00 17,8 16,7 8 4 - - ESE 1008,9 0,2 -
13.12.2019 21:00:00 17,8 17,2 0 0 - - N 1009,4 0,2 -
13.12.2019 20:00:00 18,9 17,8 0 0 - - N 1009,8 6 -
13.12.2019 19:00:00 18,3 17,2 15 8 - - SSE 1010,2 3,2 -
13.12.2019 18:00:00 18,9 17,8 8 4 - - NNE 1010,2 8 -
13.12.2019 17:00:00 19,4 17,8 0 0 - - N 1010,9 13 2,5
13.12.2019 16:00:00 20,0 18,3 8 4 - - NNW 1011,0 10 0,0
13.12.2019 15:00:00 20,6 18,9 8 4 - - NW 1011,5 16 0,5
13.12.2019 14:00:00 20,6 18,9 13 7 - - N 1011,7 13 -
13.12.2019 13:00:00 20,6 18,3 8 4 - - N 1012,7 11 -
13.12.2019 12:00:00 20,0 17,8 8 4 - - NNE 1013,9 11 -
13.12.2019 11:00:00 18,9 17,8 0 0 - - N 1015,3 6 0,3
13.12.2019 10:00:00 18,3 16,7 9 5 - - N 1016,1 8 0,0
13.12.2019 09:00:00 18,3 17,2 16 9 - - W 1015,8 6 10,9
13.12.2019 08:00:00 18,3 17,2 5 3 - - NNE 1015,8 4,8 3,8
13.12.2019 07:00:00 18,3 17,2 5 3 - - NNE 1016,0 6 1,5
13.12.2019 06:00:00 17,8 16,7 8 4 - - W 1016,4 6 0,3
13.12.2019 05:00:00 17,8 16,7 9 5 - - N 1017,1 6 0,3
13.12.2019 04:00:00 17,8 16,7 9 5 - - N 1018,0 11 -
13.12.2019 03:00:00 17,8 16,7 0 0 - - N 1019,0 10 0,8
13.12.2019 02:00:00 17,2 16,1 9 5 - - N 1019,6 6 0,8
13.12.2019 01:00:00 17,2 16,1 0 0 - - N 1020,7 6 1,3
13.12.2019 00:00:00 17,2 16,1 9 5 - - NNE 1021,6 4,8 0,0
12.12.2019 23:00:00 17,2 15,6 13 7 - - NNE 1022,6 16 0,0
12.12.2019 22:00:00 16,7 15,6 16 9 - - NNE 1023,1 16 0,0
12.12.2019 21:00:00 16,7 15,0 15 8 - - NNE 1023,7 10 0,8
12.12.2019 20:00:00 16,7 15,0 21 11 - - NNE 1024,1 6 0,5
12.12.2019 19:00:00 16,7 15,0 26 14 - - NE 1023,9 10 0,0
12.12.2019 18:00:00 16,7 14,4 21 11 - - NE 1024,5 10 -
12.12.2019 17:00:00 16,7 13,9 24 13 - - NE 1024,6 11 0,0
12.12.2019 16:00:00 17,2 13,9 24 13 - - NE 1024,8 8 0,0
12.12.2019 15:00:00 17,2 13,9 26 14 - - NE 1024,9 16 -
12.12.2019 14:00:00 17,8 13,3 31 17 - - NE 1025,6 16 -
12.12.2019 13:00:00 18,3 12,8 29 16 48 26 NE 1026,3 16 -
12.12.2019 12:00:00 18,9 12,8 34 18 - - NE 1027,3 16 -
12.12.2019 11:00:00 18,3 12,8 29 16 - - NE 1028,2 16 -
12.12.2019 10:00:00 17,2 12,2 29 16 - - NE 1028,6 16 -
12.12.2019 09:00:00 17,2 11,7 26 14 - - NE 1028,5 16 -
12.12.2019 08:00:00 16,7 11,1 31 17 - - NE 1028,0 16 -
12.12.2019 07:00:00 16,7 10,6 26 14 48 26 NE 1027,8 16 -
12.12.2019 06:00:00 16,1 10,0 26 14 - - NE 1027,6 16 -
12.12.2019 05:00:00 15,6 10,0 21 11 - - NE 1027,4 16 -
12.12.2019 04:00:00 15,0 9,4 24 13 - - NE 1027,5 16 -
12.12.2019 03:00:00 15,0 8,3 28 15 - - NE 1027,9 16 -
12.12.2019 02:00:00 15,0 6,7 24 13 - - NE 1027,9 16 -
12.12.2019 01:00:00 15,0 6,7 24 13 - - NE 1028,2 16 -
12.12.2019 00:00:00 15,6 7,2 28 15 - - NE 1028,6 16 -
11.12.2019 23:00:00 15,6 8,9 28 15 - - NE 1028,7 16 -
11.12.2019 22:00:00 15,6 9,4 26 14 - - NE 1028,5 16 -
11.12.2019 21:00:00 15,6 7,8 29 16 - - NE 1028,0 16 -
11.12.2019 20:00:00 15,6 7,2 28 15 - - NE 1028,2 16 -
11.12.2019 19:00:00 15,0 8,9 16 9 - - NE 1027,4 16 -
11.12.2019 18:00:00 15,0 8,9 26 14 - - NE 1027,4 16 -
11.12.2019 17:00:00 15,0 9,4 29 16 - - NNE 1027,2 16 -
11.12.2019 16:00:00 15,6 10,6 29 16 - - NNE 1026,5 16 -
11.12.2019 15:00:00 15,0 11,7 24 13 - - NE 1025,6 16 -
11.12.2019 14:00:00 14,4 11,7 15 8 - - NNE 1025,2 11 -
11.12.2019 13:00:00 14,4 11,7 24 13 - - NNE 1025,5 11 -
11.12.2019 12:00:00 14,4 11,7 22 12 - - N 1025,9 11 -
11.12.2019 11:00:00 15,6 12,8 29 16 - - NNW 1025,6 16 -
11.12.2019 10:00:00 16,7 13,3 15 8 - - NNE 1024,7 16 -
11.12.2019 09:00:00 16,7 13,3 13 7 - - N 1024,2 16 -
11.12.2019 08:00:00 16,1 13,3 16 9 - - N 1023,6 16 -
11.12.2019 07:00:00 16,7 14,4 29 16 - - NNW 1023,0 16 0,3
11.12.2019 06:00:00 19,4 17,8 24 13 - - NW 1021,2 10 0,0
11.12.2019 05:00:00 21,7 20,0 11 6 - - W 1019,9 10 -
11.12.2019 04:00:00 21,1 19,4 5 3 - - SW 1019,5 10 -
11.12.2019 03:00:00 20,6 19,4 5 3 - - WSW 1019,3 15 -
11.12.2019 02:00:00 21,1 18,9 11 6 - - S 1018,9 16 -
11.12.2019 01:00:00 21,1 19,4 9 5 - - S 1019,2 15 -
11.12.2019 00:00:00 21,7 20,0 0 0 - - N 1019,0 16 1,3
10.12.2019 23:00:00 21,1 19,4 5 3 - - SSW 1019,2 13 0,0
10.12.2019 22:00:00 21,7 18,9 5 3 - - SSW 1019,0 16 -
10.12.2019 21:00:00 20,6 18,9 5 3 - - S 1018,8 16 -
10.12.2019 20:00:00 22,8 19,4 0 0 - - N 1018,6 16 0,0
10.12.2019 19:00:00 23,3 18,3 9 5 - - SSW 1018,0 13 0,0
10.12.2019 18:00:00 25,0 17,8 8 4 - - SSW 1017,1 16 -
10.12.2019 17:00:00 26,1 17,8 11 6 - - S 1016,6 16 -
10.12.2019 16:00:00 27,8 17,8 13 7 - - S 1016,6 16 -
10.12.2019 15:00:00 28,3 17,8 15 8 - - S 1016,8 16 -
10.12.2019 14:00:00 27,2 17,8 18 10 - - S 1017,4 16 -
10.12.2019 13:00:00 27,8 18,3 16 9 - - S 1017,9 16 -
10.12.2019 12:00:00 26,1 18,9 15 8 - - S 1018,8 16 -
10.12.2019 11:00:00 23,9 17,8 13 7 - - S 1019,8 16 -
10.12.2019 10:00:00 21,1 16,1 16 9 - - S 1020,2 16 -
10.12.2019 09:00:00 18,3 15,6 13 7 - - S 1019,8 16 -
10.12.2019 08:00:00 17,2 15,0 8 4 - - S 1019,5 16 -

tt = temperature
td = dewpoint
ff = wind speed
fx = gusts
dd = wind direction
ppp = reduced air pressure
vv = visibility
rr = precipitation

Next stations